Weather History for KFOZ - October, 2012

Change the Weather History Date:

Wednesday, October 10, 2012

  Actual Average (KGPZ) Record (KGPZ)
Temperature  
Mean Temperature 37 °F -  
Max Temperature 44 °F 55 °F 83 °F (1955)
Min Temperature 30 °F 34 °F 17 °F (1944)
Degree Days  
Heating Degree Days 28    
Moisture  
Dew Point 29 °F    
Average Humidity 79    
Maximum Humidity 93    
Minimum Humidity 49    
Precipitation  
Precipitation 0.05 in - - ()
Sea Level Pressure  
Sea Level Pressure 29.93 in    
Wind  
Wind Speed 3 mph (WSW)    
Max Wind Speed 15 mph    
Max Gust Speed 21 mph    
Visibility 9 miles    
Events Rain , Snow    
Averages and records for this station are not official NWS values.
T = Trace of Precipitation, MM = Missing Value Source: NWS Daily Summary

Daily Weather History Graph

Daily Weather History Graph

Search for Another Location

Airport or City:

Trip Planner

Search our weather history database for the weather conditions in past years. The results will help you decide how hot, cold, wet, or windy it might be!

Date:

Astronomy

Oct. 10, 2012 Rise Set
Actual Time 7:27 AM CDT 6:34 PM CDT
Civil Twilight 6:56 AM CDT 7:05 PM CDT
Nautical Twilight 6:20 AM CDT 7:41 PM CDT
Astronomical Twilight 5:44 AM CDT 8:17 PM CDT
Moon 1:42 AM CDT (10/10) 3:56 PM CDT (10/10)
Length of Visible Light 12h 09m
Length of Day
11h 07m
Waning Crescent, 27% of the Moon is Illuminated
Oct 10
Waning Crescent
Oct 15
New
Oct 21
First Quarter
Oct 29
Full
Nov 6
Last Quarter

Hourly Weather History & Observations

Time (CDT) Temp. Windchill Dew Point Humidity Pressure Visibility Wind Dir Wind Speed Gust Speed Precip Events Conditions
12:13 AM 32.0 °F 28.7 °F 28.4 °F 87% 29.90 in 10.0 mi WNW 3.5 mph - N/A   Overcast
12:33 AM 32.0 °F - 28.4 °F 87% 29.90 in 10.0 mi Calm Calm - N/A   Overcast
12:53 AM 32.0 °F - 28.4 °F 87% 29.90 in 10.0 mi Calm Calm - N/A   Overcast
1:13 AM 32.0 °F - 28.4 °F 87% 29.90 in 10.0 mi Calm Calm - N/A   Overcast
1:33 AM 32.0 °F 28.7 °F 28.4 °F 87% 29.91 in 10.0 mi NW 3.5 mph - N/A   Overcast
1:53 AM 32.0 °F - 28.4 °F 87% 29.91 in 10.0 mi Calm Calm - N/A   Overcast
2:13 AM 32.0 °F - 28.4 °F 87% 29.92 in 10.0 mi Calm Calm - N/A   Overcast
2:33 AM 32.0 °F 27.5 °F 28.4 °F 87% 29.92 in 10.0 mi WNW 4.6 mph - N/A   Overcast
2:53 AM 30.2 °F 26.7 °F 28.4 °F 93% 29.92 in 10.0 mi WNW 3.5 mph - N/A Snow Light Snow
3:13 AM 30.2 °F - 28.4 °F 93% 29.92 in 10.0 mi Calm Calm - N/A   Overcast
3:33 AM 30.2 °F - 28.4 °F 93% 29.92 in 10.0 mi Calm Calm - N/A   Overcast
3:53 AM 30.2 °F 25.4 °F 28.4 °F 93% 29.92 in 10.0 mi West 4.6 mph - N/A   Overcast
4:13 AM 30.2 °F - 28.4 °F 93% 29.93 in 10.0 mi Calm Calm - N/A   Overcast
4:33 AM 30.2 °F - 28.4 °F 93% 29.93 in 10.0 mi Calm Calm - N/A   Overcast
4:53 AM 30.2 °F - 28.4 °F 93% 29.94 in 10.0 mi Calm Calm - N/A   Overcast
5:13 AM 30.2 °F - 28.4 °F 93% 29.94 in 10.0 mi Calm Calm - N/A   Overcast
5:33 AM 30.2 °F - 28.4 °F 93% 29.94 in 10.0 mi Calm Calm - N/A   Overcast
5:53 AM 30.2 °F - 28.4 °F 93% 29.94 in 10.0 mi Calm Calm - N/A   Overcast
6:13 AM 30.2 °F - 28.4 °F 93% 29.94 in 10.0 mi Calm Calm - N/A   Overcast
6:33 AM 30.2 °F - 28.4 °F 93% 29.95 in 10.0 mi Calm Calm - N/A   Overcast
6:53 AM 30.2 °F 26.7 °F 28.4 °F 93% 29.95 in 10.0 mi WSW 3.5 mph - N/A   Overcast
7:33 AM 30.2 °F - 28.4 °F 93% 29.95 in 10.0 mi Calm Calm - N/A   Overcast
7:53 AM 30.2 °F 25.4 °F 28.4 °F 93% 29.95 in 10.0 mi WSW 4.6 mph - N/A   Overcast
8:13 AM 32.0 °F 27.5 °F 28.4 °F 87% 29.96 in 10.0 mi West 4.6 mph - N/A   Mostly Cloudy
8:33 AM 33.8 °F 30.8 °F 30.2 °F 87% 29.96 in 10.0 mi West 3.5 mph - N/A   Overcast
8:53 AM 33.8 °F 30.8 °F 30.2 °F 87% 29.96 in 10.0 mi West 3.5 mph - N/A   Mostly Cloudy
9:13 AM 33.8 °F 27.7 °F 30.2 °F 87% 29.96 in 10.0 mi West 6.9 mph - N/A   Mostly Cloudy
9:33 AM 33.8 °F 29.6 °F 30.2 °F 87% 29.96 in 10.0 mi West 4.6 mph - N/A   Mostly Cloudy
9:53 AM 35.6 °F 29.2 °F 30.2 °F 81% 29.97 in 10.0 mi West 8.1 mph - N/A   Scattered Clouds
10:13 AM 35.6 °F 29.9 °F 30.2 °F 81% 29.97 in 10.0 mi West 6.9 mph - N/A   Scattered Clouds
10:33 AM 37.4 °F 31.4 °F 30.2 °F 75% 29.98 in 10.0 mi WSW 8.1 mph - N/A   Mostly Cloudy
10:53 AM 37.4 °F 32.1 °F 30.2 °F 75% 29.98 in 10.0 mi WSW 6.9 mph - N/A   Mostly Cloudy
11:13 AM 37.4 °F 32.1 °F 28.4 °F 70% 29.98 in 10.0 mi WSW 6.9 mph - N/A   Scattered Clouds
11:33 AM 39.2 °F 34.2 °F 30.2 °F 70% 29.98 in 10.0 mi WSW 6.9 mph - N/A   Scattered Clouds
11:53 AM 39.2 °F 34.2 °F 28.4 °F 65% 29.97 in 10.0 mi West 6.9 mph - N/A   Scattered Clouds
12:13 PM 39.2 °F 34.2 °F 28.4 °F 65% 29.97 in 10.0 mi West 6.9 mph - N/A   Scattered Clouds
12:34 PM 41.0 °F 35.8 °F 28.4 °F 61% 29.97 in 10.0 mi West 8.1 mph - N/A   Scattered Clouds
12:53 PM 41.0 °F 36.4 °F 26.6 °F 57% 29.96 in 10.0 mi West 6.9 mph - N/A   Clear
1:14 PM 42.8 °F 41.1 °F 26.6 °F 53% 29.95 in 10.0 mi West 3.5 mph - N/A   Scattered Clouds
1:33 PM 42.8 °F 38.6 °F 26.6 °F 53% 29.95 in 10.0 mi WSW 6.9 mph - N/A   Scattered Clouds
1:53 PM 42.8 °F 35.8 °F 26.6 °F 53% 29.94 in 10.0 mi SW 13.8 mph 17.3 mph N/A   Mostly Cloudy
2:13 PM 42.8 °F 39.3 °F 24.8 °F 49% 29.94 in 10.0 mi West 5.8 mph - N/A   Scattered Clouds
2:33 PM 42.8 °F 38.0 °F 26.6 °F 53% 29.93 in 10.0 mi WSW 8.1 mph - N/A   Scattered Clouds
2:53 PM 44.6 °F 39.2 °F 26.6 °F 49% 29.92 in 10.0 mi SW 10.4 mph - N/A   Scattered Clouds
3:13 PM 44.6 °F 38.4 °F 26.6 °F 49% 29.92 in 10.0 mi SW 12.7 mph 17.3 mph N/A   Mostly Cloudy
3:33 PM 44.6 °F 39.7 °F 28.4 °F 53% 29.92 in 10.0 mi SW 9.2 mph - N/A   Scattered Clouds
3:53 PM 44.6 °F 39.2 °F 26.6 °F 49% 29.91 in 10.0 mi SW 10.4 mph 16.1 mph N/A   Scattered Clouds
4:14 PM 42.8 °F 35.4 °F 26.6 °F 53% 29.91 in 10.0 mi SW 15.0 mph 20.7 mph N/A   Scattered Clouds
4:33 PM 42.8 °F 37.5 °F 26.6 °F 53% 29.91 in 10.0 mi SW 9.2 mph - N/A   Scattered Clouds
4:53 PM 42.8 °F 37.0 °F 26.6 °F 53% 29.91 in 10.0 mi SW 10.4 mph - N/A   Clear
5:13 PM 42.8 °F 37.5 °F 28.4 °F 57% 29.91 in 10.0 mi WSW 9.2 mph - N/A   Scattered Clouds
5:33 PM 39.2 °F - 30.2 °F 70% 29.90 in 10.0 mi Calm Calm - N/A Rain Light Rain
5:53 PM 37.4 °F 31.4 °F 33.8 °F 87% 29.91 in 10.0 mi WSW 8.1 mph - N/A Rain Light Rain
6:13 PM 39.2 °F 37.0 °F 28.4 °F 65% 29.91 in 10.0 mi West 3.5 mph - N/A   Mostly Cloudy
6:53 PM 39.2 °F 33.0 °F 30.2 °F 70% 29.92 in 10.0 mi West 9.2 mph 17.3 mph N/A Rain Light Rain
7:13 PM 37.4 °F 32.8 °F 32.0 °F 81% 29.93 in 10.0 mi West 5.8 mph - N/A Rain Light Rain
7:33 PM 37.4 °F 34.9 °F 32.0 °F 81% 29.93 in 10.0 mi West 3.5 mph - N/A Rain Light Rain
7:53 PM 35.6 °F - 33.8 °F 93% 29.93 in 10.0 mi Calm Calm - N/A Rain Light Rain
8:13 PM 35.6 °F 31.7 °F 33.8 °F 93% 29.93 in 10.0 mi WSW 4.6 mph - 0.01 in Rain Light Rain
8:33 PM 35.6 °F 32.8 °F 33.8 °F 93% 29.93 in 7.0 mi WSW 3.5 mph - 0.01 in Rain Rain
8:53 PM 35.6 °F - 33.8 °F 93% 29.92 in 7.0 mi Calm Calm - N/A Rain Rain
9:13 PM 35.6 °F - 32.0 °F 87% 29.92 in 5.0 mi Calm Calm - N/A Rain Rain
9:33 PM 33.8 °F - 32.0 °F 93% 29.92 in 5.0 mi Calm Calm - 0.01 in   Overcast
9:53 PM 33.8 °F - 32.0 °F 93% 29.92 in 3.0 mi Calm Calm - 0.01 in Rain Rain
10:13 PM 33.8 °F - 32.0 °F 93% 29.92 in 3.0 mi Calm Calm - 0.01 in   Overcast
10:33 PM 33.8 °F - 32.0 °F 93% 29.92 in 3.0 mi Calm Calm - 0.02 in   Overcast
10:53 PM 33.8 °F - 30.2 °F 87% 29.92 in 2.0 mi Calm Calm - N/A   Overcast
11:13 PM 33.8 °F - 32.0 °F 93% 29.92 in 2.0 mi Calm Calm - 0.01 in Snow Light Snow
11:33 PM 33.8 °F - 30.2 °F 87% 29.92 in 2.5 mi Calm Calm - 0.01 in Snow Light Snow
11:53 PM 33.8 °F - 30.2 °F 87% 29.91 in 2.5 mi Calm Calm - N/A Snow Light Snow